This is the latest recevied weather packets stored in our database for station/object PP5FMM-13. If no packets are shown the sender has not sent any weather packets the latest 10 day(s).
| Time | Temp. | Humidity | Pressure | Rain* | Wind** | Luminosity | Snow |
|---|---|---|---|---|---|---|---|
| 1777833332 | 26.67° C | 52% | 1021.8 hPa | - | - | - | - |
| 1777833032 | 26.67° C | 52% | 1021.6 hPa | - | - | - | - |
| 1777832732 | 26.11° C | 52% | 1021.6 hPa | - | - | - | - |
| 1777832432 | 26.11° C | 49% | 1021.6 hPa | - | - | - | - |
| 1777832132 | 26.67° C | 51% | 1021.6 hPa | - | - | - | - |
| 1777831832 | 26.67° C | 50% | 1021.6 hPa | - | - | - | - |
| 1777831538 | 26.67° C | 49% | 1021.6 hPa | - | - | - | - |
| 1777831232 | 26.67° C | 50% | 1021.6 hPa | - | - | - | - |
| 1777830933 | 26.67° C | 49% | 1021.7 hPa | - | - | - | - |
| 1777830632 | 26.11° C | 47% | 1021.6 hPa | - | - | - | - |
| 1777830332 | 26.11° C | 48% | 1021.6 hPa | - | - | - | - |
| 1777830032 | 26.11° C | 48% | 1021.7 hPa | - | - | - | - |
| 1777829732 | 26.11° C | 47% | 1021.8 hPa | - | - | - | - |
| 1777829432 | 26.11° C | 45% | 1021.6 hPa | - | - | - | - |
| 1777829132 | 26.11° C | 46% | 1021.7 hPa | - | - | - | - |
| 1777828832 | 26.11° C | 47% | 1021.7 hPa | - | - | - | - |
| 1777828532 | 26.11° C | 45% | 1021.8 hPa | - | - | - | - |
| 1777828232 | 26.11° C | 45% | 1021.8 hPa | - | - | - | - |
| 1777827932 | 26.11° C | 45% | 1021.8 hPa | - | - | - | - |
| 1777827632 | 26.11° C | 46% | 1021.9 hPa | - | - | - | - |
| 1777827332 | 26.11° C | 46% | 1021.9 hPa | - | - | - | - |
| 1777827032 | 26.11° C | 46% | 1021.9 hPa | - | - | - | - |
| 1777826732 | 25.56° C | 46% | 1022 hPa | - | - | - | - |
| 1777826432 | 25.56° C | 44% | 1022 hPa | - | - | - | - |
| 1777826132 | 25.56° C | 46% | 1022.2 hPa | - | - | - | - |
* Rain since midnight (hover to see other rain measurements)
** Current wind speed in m/s (hover to see current wind gust speed)